Regional Weather Roundup
Issued by NWS Green Bay, WI

Home | Current Version | Previous Version | Text Only | Print | Product List | Glossary On
Versions: 1 2 3 4 5 6 7 8 9 10 11 12 13 14 15 16 17 18 19 20 21 22 23 24 25 26 27 28 29 30 31 32 33 34 35 36 37 38 39 40 41 42 43 44 45 46 47 48 49 50
000
ASUS43 KGRB 121000
RWRGRB

NORTH-CENTRAL AND NORTHEAST WISCONSIN REGIONAL WEATHER ROUNDUP
NATIONAL WEATHER SERVICE GREEN BAY WI
400 AM CST TUE DEC 12 2017

WIZ005-009-010>012-018-019-121100-
NORTH CENTRAL WISCONSIN

CITY           SKY/WX    TMP DP  RH WIND       PRES   REMARKS
IRONWOOD       FLURRIES  12   7  80 NW10      30.06F WCI  -1
MANITOWISH WTR NOT AVBL
ARBOR VITAE    NOT AVBL
EAGLE RIVER    NOT AVBL
LAND O LAKES   NOT AVBL
RHINELANDER    CLOUDY    11   4  73 NW7       29.99S WCI   0
PHILLIPS       NOT AVBL
ANTIGO         NOT AVBL
TOMAHAWK       NOT AVBL
MERRILL        NOT AVBL
$$

WIZ013-073-121100-
NORTHEAST WISCONSIN

CITY           SKY/WX    TMP DP  RH WIND       PRES   REMARKS
IRON MOUNTAIN  CLOUDY    11   1  64 N9        29.97S WCI  -2
MARINETTE      CLEAR     12   0  58 N12G21    30.02  WCI  -2
$$

WIZ017-030-035>037-045-121100-
CENTRAL WISCONSIN

CITY           SKY/WX    TMP DP  RH WIND       PRES   REMARKS
MEDFORD        NOT AVBL
WAUSAU         CLOUDY    13   3  64 NW16G25   30.03S WCI  -3
MOSINEE        NOT AVBL
MARSHFIELD     CLOUDY    13   4  67 NW17      30.05S WCI  -4
WISC RAPIDS    CLOUDY    13   6  74 N9        30.09S WCI   1
STEVENS POINT  NOT AVBL
WAUPACA        NOT AVBL
SHAWANO        NOT AVBL
CLINTONVILLE   NOT AVBL
WAUTOMA        PTCLDY    14   3  61 NW10      30.07R WCI   1
$$

WIZ038-039-048-051-121100-
FOX VALLEY

CITY           SKY/WX    TMP DP  RH WIND       PRES   REMARKS
NWS GREEN BAY  CLOUDY    17   9  70 NW16      30.03R WCI   2
APPLETON       NOT AVBL
OSHKOSH        CLOUDY    18   7  62 NW16      30.02R WCI   3
FOND DU LAC    CLOUDY    19   6  57 NW14      30.02R WCI   6
$$

WIZ022-050-052-121100-
EAST CENTRAL WISCONSIN

CITY           SKY/WX    TMP DP  RH WIND       PRES   REMARKS
EPHRAIM        NOT AVBL
WASHINGTON ISL NOT AVBL
STURGEON BAY   MOCLDY    14   2  58 NW24G35   29.99R WCI  -5
MANITOWOC      MOCLDY    16   6  65 NW18      30.01R WCI   0
SHEBOYGAN      PTCLDY    17   6  62 NW16G24   29.99S WCI   2
$$

LMZ563-521-522-541>543-121100-
LAKESHORE

STATION/POSITION TIME  TEMP    WIND        PRES    VSBY  WAVE
                       AIR SEA DIR/SP/G                  HT/PER
                 (UTC) (F)     (DEG/KT/KT) (MB)    (MI)  (FT/S)
SHEBOYGAN LKSHOR 0900   19     330/ 20/ 24 1016.4R
KEWAUNEE LKSHORE 0930   16     330/ 13/ 22 1014.9R
NORTHPORT PIER   0940   18     320/ 29/ 38 1014.2S
MENOMINEE LKSHOR 0930   15     310/ 18/ 22 1015.8R
$$




USA.gov is the U.S. government's official web portal to all federal, state and local government web resources and services.